| time (UTC) | temp C | wind direction | speed KPH | gust KPH | rain 1hr cm | rain 24hr cm | rain mn cm | humidity % | barometer mb |
| 20260901094508 | 25 | 248 | 1.6 | 4.8 | 0.00 | 0.00 | 0.00 | 84 | 1016.8 |
| 20260901093004 | 25 | 271 | 0.0 | 4.8 | 0.00 | 0.00 | 0.00 | 83 | 1016.8 |
| 20260901091504 | 25 | 186 | 0.0 | 3.2 | 0.00 | 0.00 | 0.00 | 1017.0 | |
| 20260901090010 | 25 | 244 | 0.0 | 1.6 | 0.00 | 0.00 | 0.00 | 82 | 1016.9 |
| 20260901084508 | 25 | 244 | 0.0 | 3.2 | 0.00 | 0.00 | 0.00 | 81 | 1016.8 |
| 20260901083026 | 25 | 244 | 0.0 | 1.6 | 0.00 | 0.00 | 0.00 | 80 | 1016.7 |
| 20260901081503 | 25 | 113 | 0.0 | 0.0 | 0.00 | 0.00 | 0.00 | 79 | 1016.8 |
| 20260901080005 | 26 | 112 | 0.0 | 3.2 | 0.00 | 0.00 | 0.00 | 78 | 1016.8 |
| 20260901074518 | 26 | 125 | 0.0 | 0.0 | 0.00 | 0.00 | 0.00 | 77 | 1016.9 |
| 20260901073027 | 26 | 125 | 0.0 | 4.8 | 0.00 | 0.00 | 0.00 | 75 | 1016.9 |
| 20260901071515 | 26 | 127 | 0.0 | 3.2 | 0.00 | 0.00 | 0.00 | 75 | 1017.0 |
| 20260901070009 | 27 | 203 | 0.0 | 3.2 | 0.00 | 0.00 | 0.00 | 74 | 1016.9 |
| 20260901064508 | 27 | 129 | 0.0 | 6.4 | 0.00 | 0.00 | 0.00 | 73 | 1016.7 |
| 20260901063016 | 27 | 254 | 0.0 | 3.2 | 0.00 | 0.00 | 0.00 | 72 | 1016.7 |
| 20260901061521 | 27 | 240 | 0.0 | 6.4 | 0.00 | 0.00 | 0.00 | 72 | 1016.6 |
| 20260901060019 | 27 | 242 | 0.0 | 6.4 | 0.00 | 0.00 | 0.00 | 70 | 1016.5 |
| 20260901054506 | 28 | 165 | 0.0 | 4.8 | 0.00 | 0.00 | 0.00 | 69 | 1016.5 |
| 20260901053013 | 28 | 76 | 0.0 | 4.8 | 0.00 | 0.00 | 0.00 | 67 | 1016.3 |
| 20260901051518 | 28 | 288 | 1.6 | 4.8 | 0.00 | 0.00 | 0.00 | 66 | 1016.2 |
| 20260901050024 | 28 | 254 | 0.0 | 6.4 | 0.00 | 0.00 | 0.00 | 65 | 1016.1 |
| 20260901044526 | 28 | 104 | 0.0 | 11.3 | 0.00 | 0.00 | 0.00 | 64 | 1016.0 |
| 20260901043010 | 29 | 165 | 0.0 | 12.9 | 0.00 | 0.00 | 0.00 | 63 | 1016.0 |
| 20260901041514 | 29 | 179 | 1.6 | 6.4 | 0.00 | 0.00 | 0.00 | 62 | 1015.9 |
| 20260901040028 | 29 | 215 | 0.0 | 6.4 | 0.00 | 0.00 | 0.00 | 60 | 1016.0 |
| 20260901034533 | 30 | 106 | 1.6 | 11.3 | 0.00 | 0.00 | 0.00 | 59 | 1015.9 |
| 20260901033027 | 30 | 163 | 1.6 | 11.3 | 0.00 | 0.00 | 0.00 | 58 | 1015.8 |
| 20260901031529 | 30 | 88 | 1.6 | 12.9 | 0.00 | 0.00 | 0.00 | 56 | 1015.7 |
| 20260901030023 | 30 | 145 | 1.6 | 12.9 | 0.00 | 0.00 | 0.00 | 54 | 1015.5 |
| 20260901024509 | 29 | 117 | 0.0 | 12.9 | 0.00 | 0.00 | 0.00 | 52 | 1015.1 |
| 20260901023007 | 29 | 142 | 0.0 | 3.2 | 0.00 | 0.00 | 0.00 | 50 | 1014.9 |
| 20260901021510 | 29 | 77 | 0.0 | 3.2 | 0.00 | 0.00 | 0.00 | 50 | 1014.8 |
| 20260901020018 | 29 | 167 | 0.0 | 3.2 | 0.00 | 0.00 | 0.00 | 51 | 1014.4 |
| 20260901014503 | 30 | 132 | 0.0 | 3.2 | 0.00 | 0.00 | 0.00 | 50 | 1014.3 |
| 20260901013005 | 30 | 132 | 0.0 | 3.2 | 0.00 | 0.00 | 0.00 | 48 | 1014.2 |
| 20260901011507 | 30 | 40 | 0.0 | 3.2 | 0.00 | 0.00 | 0.00 | 47 | 1014.1 |
| 20260901010029 | 31 | 94 | 0.0 | 3.2 | 0.00 | 0.00 | 0.00 | 46 | 1014.0 |
| 20260901004526 | 32 | 140 | 0.0 | 4.8 | 0.00 | 0.00 | 0.00 | 44 | 1014.1 |
| 20260901003003 | 32 | 134 | 0.0 | 6.4 | 0.00 | 0.00 | 0.00 | 42 | 1014.1 |
| 20260901001513 | 33 | 153 | 0.0 | 3.2 | 0.00 | 0.00 | 0.00 | 42 | 1013.9 |
| 20260901000015 | 33 | 37 | 1.6 | 8.0 | 0.00 | 0.00 | 0.00 | 41 | 1013.9 |
| 20260831234517 | 34 | 139 | 0.0 | 4.8 | 0.00 | 0.00 | 0.00 | 40 | 1013.9 |
| 20260831233027 | 35 | 20 | 0.0 | 6.4 | 0.00 | 0.00 | 0.00 | 39 | 1014.0 |
| 20260831231504 | 36 | 55 | 0.0 | 6.4 | 0.00 | 0.00 | 0.00 | 36 | 1014.0 |
| 20260831230012 | 36 | 36 | 0.0 | 6.4 | 0.00 | 0.00 | 0.00 | 37 | 1014.0 |
| 20260831224514 | 36 | 108 | 1.6 | 6.4 | 0.00 | 0.00 | 0.00 | 35 | 1014.0 |
| 20260831223024 | 36 | 51 | 1.6 | 9.7 | 0.00 | 0.00 | 0.00 | 35 | 1014.2 |
| 20260831221534 | 36 | 146 | 1.6 | 6.4 | 0.00 | 0.00 | 0.00 | 35 | 1014.3 |
| 20260831220007 | 35 | 126 | 3.2 | 12.9 | 0.00 | 0.00 | 0.00 | 38 | 1014.3 |
| 20260831214510 | 37 | 103 | 1.6 | 4.8 | 0.00 | 0.00 | 0.00 | 37 | 1014.6 |
| 20260831213017 | 37 | 75 | 3.2 | 9.7 | 0.00 | 0.00 | 0.00 | 38 | 1014.7 |
| 20260831211523 | 37 | 178 | 1.6 | 8.0 | 0.00 | 0.00 | 0.00 | 37 | 1015.0 |
| 20260831210027 | 37 | 42 | 1.6 | 4.8 | 0.00 | 0.00 | 0.00 | 39 | 1015.2 |
| 20260831204509 | 36 | 274 | 0.0 | 8.0 | 0.00 | 0.00 | 0.00 | 39 | 1015.5 |
| 20260831203014 | 35 | 57 | 0.0 | 4.8 | 0.00 | 0.00 | 0.00 | 44 | 1015.8 |
| 20260831201525 | 34 | 114 | 0.0 | 9.7 | 0.00 | 0.00 | 0.00 | 44 | 1016.0 |
| 20260831200033 | 35 | 66 | 0.0 | 6.4 | 0.00 | 0.00 | 0.00 | 43 | 1016.2 |
| 20260831194603 | 36 | 93 | 1.6 | 11.3 | 0.00 | 0.00 | 0.00 | 42 | 1016.4 |
| 20260831193010 | 37 | 123 | 1.6 | 11.3 | 0.00 | 0.00 | 0.00 | 41 | 1016.4 |
| 20260831191502 | 36 | 178 | 1.6 | 6.4 | 0.00 | 0.00 | 0.00 | 42 | 1016.7 |
| 20260831190003 | 36 | 142 | 1.6 | 16.1 | 0.00 | 0.00 | 0.00 | 42 | 1017.0 |
| 20260831184503 | 36 | 94 | 0.0 | 8.0 | 0.00 | 0.00 | 0.00 | 42 | 1017.2 |
| 20260831183008 | 35 | 30 | 1.6 | 11.3 | 0.00 | 0.00 | 0.00 | 44 | 1017.2 |
| 20260831181521 | 36 | 258 | 3.2 | 6.4 | 0.00 | 0.00 | 0.00 | 46 | 1017.3 |
| 20260831180003 | 35 | 50 | 0.0 | 4.8 | 0.00 | 0.00 | 0.00 | 48 | 1017.5 |
| 20260831174504 | 34 | 254 | 1.6 | 11.3 | 0.00 | 0.00 | 0.00 | 52 | 1017.9 |
| 20260831173007 | 35 | 98 | 0.0 | 9.7 | 0.00 | 0.00 | 0.00 | 51 | 1017.9 |
| 20260831171522 | 33 | 246 | 0.0 | 8.0 | 0.00 | 0.00 | 0.00 | 53 | 1018.1 |
| 20260831170045 | 33 | 140 | 1.6 | 6.4 | 0.00 | 0.00 | 0.00 | 56 | 1018.3 |
| 20260831164503 | 33 | 250 | 0.0 | 8.0 | 0.00 | 0.00 | 0.00 | 58 | 1018.3 |
| 20260831163005 | 32 | 144 | 1.6 | 8.0 | 0.00 | 0.00 | 0.00 | 60 | 1018.1 |
| 20260831161509 | 31 | 211 | 1.6 | 6.4 | 0.00 | 0.00 | 0.00 | 62 | 1018.2 |
| 20260831160029 | 31 | 179 | 1.6 | 11.3 | 0.00 | 0.00 | 0.00 | 63 | 1018.2 |
| 20260831154558 | 30 | 194 | 0.0 | 8.0 | 0.00 | 0.00 | 0.00 | 67 | 1018.3 |
| 20260831153007 | 30 | 255 | 1.6 | 6.4 | 0.00 | 0.00 | 0.00 | 70 | 1018.2 |
| 20260831151510 | 29 | 254 | 1.6 | 11.3 | 0.00 | 0.00 | 0.00 | 72 | 1018.1 |
| 20260831150014 | 28 | 242 | 1.6 | 11.3 | 0.00 | 0.00 | 0.00 | 75 | 1018.1 |
| 20260831144526 | 27 | 178 | 3.2 | 6.4 | 0.00 | 0.00 | 0.00 | 78 | 1017.8 |
| 20260831143027 | 27 | 266 | 0.0 | 11.3 | 0.00 | 0.00 | 0.00 | 80 | 1017.8 |
| 20260831141532 | 27 | 34 | 0.0 | 9.7 | 0.00 | 0.00 | 0.00 | 81 | 1017.8 |
| 20260831140017 | 27 | 182 | 1.6 | 8.0 | 0.00 | 0.00 | 0.00 | 83 | 1017.5 |
| 20260831134518 | 26 | 256 | 0.0 | 3.2 | 0.00 | 0.00 | 0.00 | 86 | 1017.4 |
| 20260831133035 | 26 | 239 | 1.6 | 12.9 | 0.00 | 0.00 | 0.00 | 88 | 1017.3 |
| 20260831131530 | 25 | 173 | 0.0 | 3.2 | 0.00 | 0.00 | 0.00 | 89 | 1017.1 |
| 20260831130009 | 25 | 272 | 0.0 | 3.2 | 0.00 | 0.00 | 0.00 | 89 | 1017.1 |
| 20260831124518 | 25 | 297 | 0.0 | 3.2 | 0.00 | 0.00 | 0.00 | 89 | 1016.8 |
| 20260831123024 | 25 | 52 | 0.0 | 3.2 | 0.00 | 0.00 | 0.00 | 88 | 1016.8 |
| 20260831121529 | 25 | 155 | 0.0 | 4.8 | 0.00 | 0.00 | 0.00 | 88 | 1016.7 |
| 20260831120032 | 25 | 223 | 0.0 | 4.8 | 0.00 | 0.00 | 0.00 | 87 | 1016.7 |
| 20260831114515 | 25 | 132 | 0.0 | 9.7 | 0.00 | 0.00 | 0.00 | 87 | 1016.7 |
| 20260831113024 | 25 | 175 | 0.0 | 3.2 | 0.00 | 0.00 | 0.00 | 87 | 1016.6 |
| 20260831111531 | 25 | 211 | 0.0 | 3.2 | 0.00 | 0.00 | 0.00 | 87 | 1016.5 |
| 20260831110031 | 25 | 253 | 0.0 | 8.0 | 0.00 | 0.00 | 0.00 | 86 | 1016.4 |
| 20260831104539 | 25 | 214 | 1.6 | 11.3 | 0.00 | 0.00 | 0.00 | 86 | 1016.4 |
| 20260831103037 | 25 | 221 | 0.0 | 4.8 | 0.00 | 0.00 | 0.00 | 86 | 1016.5 |
| 20260831101503 | 25 | 350 | 0.0 | 4.8 | 0.00 | 0.00 | 0.00 | 86 | 1016.6 |
| 20260831100008 | 25 | 246 | 0.0 | 6.4 | 0.00 | 0.00 | 0.00 | 86 | 1016.7 |